Sturgis, MI

8:24 AM EST on December 08, 2019 (GMT -0500)
Kirsch Municipal

Weather History for KIRS - October, 2019

Change the Weather History Date:

Thursday, October 17, 2019

  Actual Average (KHAI) Record (KHAI)
Temperature  
Mean Temperature 46 °F -  
Max Temperature 51 °F 61 °F 86 °F (1950)
Min Temperature 42 °F 40 °F 22 °F (1977)
Degree Days  
Heating Degree Days 18    
Moisture  
Dew Point 39 °F    
Average Humidity 73    
Maximum Humidity 86    
Minimum Humidity 62    
Precipitation  
Precipitation 0.00 in - - ()
Sea Level Pressure  
Sea Level Pressure 29.97 in    
Wind  
Wind Speed 6 mph ()    
Max Wind Speed 13 mph    
Max Gust Speed 17 mph    
Visibility 10.0 miles    
Events      
Averages and records for this station are not official NWS values.
T = Trace of Precipitation, MM = Missing Value Source: Averaged Metar Reports

Daily Weather History Graph

Daily Weather History Graph

Search for Another Location

Airport or City:

Astronomy

Oct. 17, 2019 Rise Set
Actual Time 7:56 AM EDT 6:57 PM EDT
Civil Twilight 7:27 AM EDT 7:25 PM EDT
Nautical Twilight 6:55 AM EDT 7:57 PM EDT
Astronomical Twilight 6:23 AM EDT 8:30 PM EDT
Moon 9:25 PM EDT (10/17) 11:29 AM EDT (10/17)
Length of Visible Light 11h 57m
Length of Day
11h 01m
Waning Gibbous, 87% of the Moon is Illuminated
Oct 17
Waning Gibbous
Oct 21
Last Quarter
Oct 27
New
Nov 4
First Quarter
Nov 12
Full

Hourly Weather History & Observations

Time (EDT) Temp. Windchill Dew Point Humidity Pressure Visibility Wind Dir Wind Speed Gust Speed Precip Events Conditions
12:19 AM 46.8 °F - 40.1 °F 78% 29.92 in 10.0 mi NNW 8.1 mph - N/A   Overcast
12:37 AM 46.8 °F - 40.1 °F 78% 29.92 in 10.0 mi NNW 9.2 mph - N/A   Overcast
12:55 AM 46.8 °F - 39.7 °F 77% 29.92 in 10.0 mi NW 9.2 mph - N/A   Overcast
12:56 AM 46.8 °F - 39.6 °F 76% 29.92 in 10.0 mi NW 8.1 mph - N/A   Overcast
1:15 AM 46.8 °F - 40.1 °F 78% 29.92 in 10.0 mi NNW 5.8 mph - N/A   Overcast
1:35 AM 46.4 °F 42.9 °F 39.9 °F 78% 29.91 in 10.0 mi NNW 6.9 mph - N/A   Light Drizzle
1:58 AM 46.4 °F 41.9 °F 39.4 °F 77% 29.91 in 10.0 mi NW 9.2 mph - N/A   Mostly Cloudy
2:16 AM 46.6 °F - 39.4 °F 76% 29.91 in 10.0 mi NNW 9.2 mph - N/A   Overcast
2:35 AM 46.4 °F 41.5 °F 39.7 °F 78% 29.92 in 10.0 mi NW 10.4 mph - N/A   Drizzle
2:55 AM 46.6 °F - 39.4 °F 76% 29.92 in 10.0 mi NW 6.9 mph - N/A   Overcast
3:19 AM 46.4 °F 44.3 °F 39.7 °F 78% 29.92 in 10.0 mi NW 4.6 mph - N/A   Overcast
3:37 AM 46.0 °F 43.1 °F 39.6 °F 78% 29.92 in 10.0 mi NW 5.8 mph - N/A   Overcast
3:55 AM 45.5 °F 43.2 °F 39.4 °F 79% 29.92 in 10.0 mi NW 4.6 mph - N/A   Overcast
4:15 AM 45.5 °F 43.2 °F 39.7 °F 80% 29.93 in 10.0 mi NW 4.6 mph - N/A   Overcast
4:35 AM 45.0 °F 42.6 °F 39.2 °F 80% 29.92 in 10.0 mi NW 4.6 mph - N/A   Overcast
4:40 AM 44.8 °F 43.3 °F 39.2 °F 81% 29.93 in 10.0 mi WNW 3.5 mph - N/A   Mostly Cloudy
4:58 AM 44.6 °F 42.2 °F 38.8 °F 80% 29.93 in 10.0 mi NW 4.6 mph - N/A   Scattered Clouds
5:16 AM 44.4 °F 42.9 °F 39.0 °F 81% 29.93 in 10.0 mi NW 3.5 mph - N/A   Clear
5:35 AM 44.2 °F 42.7 °F 39.0 °F 82% 29.93 in 10.0 mi NW 3.5 mph - N/A   Scattered Clouds
5:55 AM 42.8 °F 41.1 °F 38.5 °F 85% 29.93 in 10.0 mi NW 3.5 mph - N/A   Scattered Clouds
6:19 AM 43.3 °F 41.7 °F 39.4 °F 86% 29.94 in 10.0 mi NW 3.5 mph - N/A   Scattered Clouds
6:37 AM 43.3 °F 41.7 °F 39.4 °F 86% 29.94 in 10.0 mi NW 3.5 mph - N/A   Scattered Clouds
6:55 AM 44.1 °F 42.5 °F 40.1 °F 86% 29.94 in 10.0 mi NNW 3.5 mph - N/A   Mostly Cloudy
7:15 AM 44.6 °F 43.1 °F 39.9 °F 84% 29.94 in 10.0 mi NNW 3.5 mph - N/A   Overcast
7:16 AM 44.6 °F 43.1 °F 39.9 °F 84% 29.94 in 10.0 mi NW 3.5 mph - N/A   Overcast
7:35 AM 45.0 °F 43.5 °F 39.6 °F 81% 29.94 in 10.0 mi NW 3.5 mph - N/A   Overcast
7:40 AM 45.0 °F 43.5 °F 39.6 °F 81% 29.94 in 10.0 mi NW 3.5 mph - N/A   Overcast
7:58 AM 45.1 °F - 40.1 °F 82% 29.95 in 10.0 mi Calm Calm - N/A   Overcast
8:16 AM 45.5 °F 43.2 °F 40.1 °F 81% 29.95 in 10.0 mi WNW 4.6 mph - N/A   Overcast
8:35 AM 45.9 °F 44.6 °F 40.3 °F 81% 29.95 in 10.0 mi WNW 3.5 mph - N/A   Overcast
8:36 AM 45.9 °F 43.6 °F 40.3 °F 81% 29.95 in 10.0 mi WNW 4.6 mph - N/A   Overcast
8:55 AM 46.2 °F 44.1 °F 39.9 °F 79% 29.96 in 10.0 mi NW 4.6 mph - N/A   Overcast
9:19 AM 46.6 °F - 39.9 °F 78% 29.96 in 10.0 mi WNW 5.8 mph - N/A   Overcast
9:37 AM 46.8 °F - 39.9 °F 77% 29.97 in 10.0 mi NW 4.6 mph - N/A   Overcast
9:55 AM 46.8 °F - 39.2 °F 75% 29.97 in 10.0 mi NW 6.9 mph - N/A   Overcast
9:56 AM 46.9 °F - 39.4 °F 75% 29.98 in 10.0 mi NW 5.8 mph - N/A   Overcast
10:15 AM 46.9 °F - 39.0 °F 74% 29.98 in 10.0 mi NNW 5.8 mph - N/A   Overcast
10:16 AM 46.9 °F - 39.2 °F 74% 29.98 in 10.0 mi NW 4.6 mph - N/A   Overcast
10:35 AM 47.3 °F - 38.7 °F 72% 29.98 in 10.0 mi NW 4.6 mph - N/A   Overcast
10:57 AM 47.5 °F - 38.3 °F 70% 29.97 in 10.0 mi NNW 5.8 mph - N/A   Overcast
11:16 AM 48.0 °F - 38.5 °F 70% 29.99 in 10.0 mi NW 6.9 mph - N/A   Overcast
11:35 AM 47.8 °F - 38.5 °F 70% 29.99 in 10.0 mi NNW 6.9 mph - N/A   Overcast
11:55 AM 48.2 °F - 38.1 °F 68% 29.99 in 10.0 mi NW 8.1 mph - N/A   Overcast
11:56 AM 48.2 °F - 37.9 °F 68% 29.99 in 10.0 mi NW 6.9 mph - N/A   Overcast
12:19 PM 48.2 °F - 37.6 °F 67% 29.99 in 10.0 mi NW 6.9 mph - N/A   Overcast
12:37 PM 48.2 °F - 37.6 °F 67% 29.99 in 10.0 mi NNW 8.1 mph - N/A   Overcast
12:56 PM 48.4 °F - 37.6 °F 66% 29.99 in 10.0 mi NNW 8.1 mph - N/A   Overcast
1:15 PM 48.4 °F - 37.8 °F 67% 29.98 in 10.0 mi NNW 10.4 mph - N/A   Overcast
1:16 PM 48.4 °F - 37.8 °F 67% 29.98 in 10.0 mi NNW 9.2 mph - N/A   Overcast
1:35 PM 48.6 °F - 37.8 °F 66% 29.98 in 10.0 mi NNW 9.2 mph - N/A   Overcast
1:40 PM 48.6 °F - 37.9 °F 67% 29.98 in 10.0 mi NNW 6.9 mph - N/A   Overcast
1:58 PM 48.7 °F - 38.1 °F 67% 29.98 in 10.0 mi NNW 10.4 mph 16.1 mph N/A   Overcast
2:16 PM 49.1 °F - 38.7 °F 67% 29.97 in 10.0 mi NNW 9.2 mph - N/A   Overcast
2:35 PM 49.3 °F - 38.7 °F 67% 29.97 in 10.0 mi NNW 11.5 mph 16.1 mph N/A   Overcast
2:55 PM 49.5 °F - 39.0 °F 67% 29.96 in 10.0 mi NW 6.9 mph 10.4 mph N/A   Overcast
2:56 PM 49.5 °F - 39.0 °F 67% 29.96 in 10.0 mi NW 6.9 mph 10.4 mph N/A   Overcast
3:19 PM 50.2 °F - 39.0 °F 66% 29.96 in 10.0 mi NW 11.5 mph 17.3 mph N/A   Overcast
3:37 PM 50.4 °F - 39.2 °F 66% 29.96 in 10.0 mi NW 10.4 mph 17.3 mph N/A   Overcast
3:55 PM 50.0 °F - 39.0 °F 66% 29.96 in 10.0 mi NNW 10.4 mph 17.3 mph N/A   Overcast
3:56 PM 50.2 °F - 39.2 °F 66% 29.96 in 10.0 mi NW 11.5 mph 17.3 mph N/A   Overcast
4:15 PM 50.9 °F - 39.6 °F 65% 29.96 in 10.0 mi WNW 8.1 mph - N/A   Overcast
4:35 PM 51.6 °F - 39.0 °F 62% 29.97 in 10.0 mi NW 12.7 mph 17.3 mph N/A   Overcast
4:58 PM 50.9 °F - 38.7 °F 63% 29.96 in 10.0 mi WNW 9.2 mph 17.3 mph N/A   Overcast
5:16 PM 50.9 °F - 39.2 °F 64% 29.96 in 10.0 mi WNW 9.2 mph - N/A   Overcast
5:35 PM 50.0 °F - 38.7 °F 65% 29.97 in 10.0 mi NW 10.4 mph - N/A   Mostly Cloudy
5:36 PM 49.8 °F - 38.7 °F 65% 29.97 in 10.0 mi NW 9.2 mph - N/A   Mostly Cloudy
5:55 PM 49.1 °F - 38.1 °F 66% 29.97 in 10.0 mi NNW 6.9 mph - N/A   Mostly Cloudy
5:56 PM 49.1 °F - 38.1 °F 66% 29.97 in 10.0 mi NW 8.1 mph - N/A   Mostly Cloudy
6:19 PM 49.5 °F - 38.5 °F 66% 29.98 in 10.0 mi NW 8.1 mph - N/A   Overcast
6:37 PM 49.1 °F - 38.3 °F 66% 29.99 in 10.0 mi NNW 4.6 mph - N/A   Overcast
6:55 PM 49.1 °F - 38.7 °F 67% 29.99 in 10.0 mi NNW 4.6 mph - N/A   Overcast
7:15 PM 48.7 °F - 39.4 °F 70% 29.99 in 10.0 mi NNW 4.6 mph - N/A   Overcast
7:16 PM 48.7 °F - 39.4 °F 70% 29.99 in 10.0 mi NNW 4.6 mph - N/A   Overcast
7:35 PM 48.7 °F - 39.7 °F 71% 29.99 in 10.0 mi NNW 3.5 mph - N/A   Overcast
7:40 PM 48.6 °F - 39.9 °F 72% 30.00 in 10.0 mi NNW 3.5 mph - N/A   Overcast
7:58 PM 48.6 °F - 39.9 °F 72% 30.00 in 10.0 mi NW 5.8 mph - N/A   Overcast
8:16 PM 48.4 °F - 38.8 °F 70% 30.00 in 10.0 mi NW 4.6 mph - N/A   Overcast
8:35 PM 48.4 °F - 38.5 °F 69% 30.00 in 10.0 mi NW 3.5 mph - N/A   Overcast
8:36 PM 48.4 °F - 38.5 °F 69% 30.00 in 10.0 mi NW 3.5 mph - N/A   Overcast
8:55 PM 48.2 °F - 38.3 °F 69% 30.01 in 10.0 mi NNW 4.6 mph - N/A   Overcast
8:56 PM 48.2 °F - 38.3 °F 69% 30.01 in 10.0 mi NNW 3.5 mph - N/A   Overcast
9:19 PM 48.2 °F - 38.1 °F 68% 30.01 in 10.0 mi NW 4.6 mph - N/A   Overcast
9:37 PM 47.8 °F - 38.3 °F 70% 30.01 in 10.0 mi NW 3.5 mph - N/A   Overcast
9:55 PM 47.7 °F - 38.8 °F 71% 30.02 in 10.0 mi NW 3.5 mph - N/A   Overcast
9:56 PM 47.5 °F - 38.8 °F 72% 30.02 in 10.0 mi Calm Calm - N/A   Overcast
10:15 PM 47.5 °F - 39.2 °F 73% 30.02 in 10.0 mi NW 3.5 mph - N/A   Overcast
10:16 PM 47.5 °F - 39.2 °F 73% 30.02 in 10.0 mi WNW 3.5 mph - N/A   Overcast
10:35 PM 47.3 °F - 39.6 °F 74% 30.02 in 10.0 mi WNW 3.5 mph - N/A   Overcast
10:57 PM 46.6 °F - 39.4 °F 76% 30.03 in 10.0 mi Calm Calm - N/A   Overcast
11:16 PM 46.8 °F - 39.9 °F 77% 30.04 in 10.0 mi NW 3.5 mph - N/A   Overcast
11:35 PM 46.4 °F - 39.7 °F 78% 30.03 in 10.0 mi Calm Calm - N/A   Mostly Cloudy
11:36 PM 46.4 °F - 39.6 °F 77% 30.03 in 10.0 mi Calm Calm - N/A   Mostly Cloudy
11:55 PM 45.0 °F - 39.2 °F 80% 30.03 in 10.0 mi Calm Calm - N/A   Scattered Clouds